This is the latest recevied weather packets stored in our database for station/object WD7OO. If no packets are shown the sender has not sent any weather packets the latest 10 day(s).
| Time | Temp. | Humidity | Pressure | Rain* | Wind** | Luminosity | Snow |
|---|---|---|---|---|---|---|---|
| 1777929908 | 23.89° C | 47% | 1000.4 hPa | 0 mm | - | 80 W/m² | - |
| 1777929606 | 23.89° C | 47% | 1000.5 hPa | 0 mm | - | 69 W/m² | - |
| 1777929302 | 25° C | 46% | 1000.2 hPa | 0 mm | - | 177 W/m² | - |
| 1777929000 | 24.44° C | 44% | 1000 hPa | 0 mm | - | 462 W/m² | - |
| 1777928696 | 24.44° C | 45% | 1000.5 hPa | 0 mm | - | 172 W/m² | - |
| 1777928393 | 24.44° C | 47% | 1000.3 hPa | 0 mm | - | 138 W/m² | - |
| 1777928090 | 24.44° C | 46% | 1000.5 hPa | 0 mm | - | 98 W/m² | - |
| 1777927789 | 25° C | 45% | 1000.3 hPa | 0 mm | - | 138 W/m² | - |
| 1777927487 | 25.56° C | 45% | 1000.3 hPa | 0 mm | - | 252 W/m² | - |
| 1777927185 | 25° C | 45% | 1000.4 hPa | 0 mm | - | 608 W/m² | - |
| 1777926883 | 25° C | 46% | 1000.5 hPa | 0 mm | - | 636 W/m² | - |
| 1777926579 | 25° C | 45% | 1000.3 hPa | 0 mm | - | 124 W/m² | - |
| 1777926275 | 25.56° C | 44% | 1000.2 hPa | 0 mm | - | 108 W/m² | - |
| 1777925972 | 25.56° C | 44% | 1000.2 hPa | 0 mm | - | 192 W/m² | - |
| 1777925670 | 26.11° C | 45% | 1000.4 hPa | 0 mm | - | 159 W/m² | - |
| 1777925367 | 25.56° C | 46% | 1000.6 hPa | 0 mm | - | 709 W/m² | - |
| 1777925064 | 25° C | 46% | 1000.3 hPa | 0 mm | - | 602 W/m² | - |
| 1777924761 | 25.56° C | 48% | 1000.7 hPa | 0 mm | - | 206 W/m² | - |
| 1777924456 | 25° C | 46% | 1000.8 hPa | 0 mm | - | 199 W/m² | - |
| 1777924153 | 25.56° C | 45% | 1001 hPa | 0 mm | - | 222 W/m² | - |
| 1777923849 | 25.56° C | 45% | 1000.9 hPa | 0 mm | - | 652 W/m² | - |
| 1777923545 | 25° C | 46% | 1001.2 hPa | 0 mm | - | 728 W/m² | - |
| 1777923243 | 25.56° C | 46% | 1001.2 hPa | 0 mm | - | 296 W/m² | - |
| 1777922941 | 25° C | 48% | 1001.1 hPa | 0 mm | - | 235 W/m² | - |
| 1777922638 | 25° C | 47% | 1001.1 hPa | 0 mm | - | 693 W/m² | - |
* Rain latest hour (hover to see other rain measurements)
** Current wind speed in m/s (hover to see current wind gust speed)